Temp
14 15 15 15 15 16 16 16 16 17 17 17 17 18 18 18 19 19 20 21 20 20 20 19 19 19 18 18 19 20 19 19 21 22 21 20 19 19 20 21 22 21 19 18 17
14 14 15 15 15 15 16 16 16 16 17 17 17 18 18 19 19 20 21 21 20 20 20 19 19 18 18 18 19 19 18 19 21 23 21 20 21 19 21 21 22 20 20 17 17
13 14 14 14 15 15 15 15 16 16 16 17 17 17 18 18 19 21 21 21 20 20 19 19 19 18 18 19 19 20 20 22 24 22 22 21 21 21 22 21 21 19 18 17 17
13 14 14 14 14 15 15 15 15 16 16 17 17 17 18 17 20 21 21 21 20 19 19 19 18 19 18 19 20 19 22 23 24 22 21 20 21 21 21 22 22 21 19 17 17
13 13 14 14 14 14 15 15 15 15 16 16 16 17 17 17 21 21 21 20 20 19 19 19 18 19 18 19 20 20 22 23 24 24 23 21 20 21 20 21 21 20 18 18 17
13 13 13 14 14 14 15 15 15 16 16 16 16 16 16 15 21 21 21 20 20 19 19 19 19 20 20 20 21 23 23 23 24 23 22 21 20 21 20 21 20 20 19 18 18
12 12 13 13 14 14 15 15 15 15 16 15 16 16 16 21 21 21 21 21 20 20 19 20 19 20 20 20 22 23 21 22 20 20 20 21 21 21 20 19 19 20 20 19 18
12 12 13 13 14 14 15 15 16 16 15 15 15 15 18 20 20 20 20 20 20 19 19 20 20 19 20 21 22 22 21 22 21 20 21 20 21 19 19 19 18 19 20 20 19
12 12 13 13 14 14 15 15 16 16 15 15 15 14 18 20 20 21 21 21 20 19 19 20 20 20 21 19 17 18 20 22 22 20 21 20 20 20 19 19 19 19 20 20 20
12 13 13 13 14 15 15 16 16 16 15 15 14 14 20 21 22 22 22 21 21 19 18 19 20 17 15 16 16 20 21 21 22 21 20 19 19 20 20 20 19 20 20 21 21
13 13 14 14 14 15 16 16 15 15 15 17 17 17 19 20 22 22 22 21 21 19 16 19 17 16 17 17 19 21 21 20 21 23 24 19 20 19 20 20 20 20 20 21 21
13 13 14 14 15 16 16 16 15 15 15 17 18 17 19 19 19 22 22 22 20 18 18 16 16 18 20 20 20 21 20 20 21 23 21 21 19 19 19 20 20 20 20 20 20
12 13 14 15 15 15 16 15 16 17 14 17 18 18 20 20 21 22 22 22 19 19 18 17 19 20 20 20 21 20 19 20 20 22 21 19 20 19 18 19 20 20 20 20 20
12 13 14 15 15 16 15 16 17 17 10 14 17 20 21 21 21 22 22 22 20 19 19 19 20 21 20 20 19 18 20 21 22 21 20 21 19 19 18 17 19 19 20 20 20
12 13 14 14 15 15 15 17 17 17 14 18 19 21 21 21 21 21 22 22 19 20 18 19 20 19 20 20 20 19 21 21 21 21 21 22 20 18 17 18 18 19 19 20 20
13 14 14 14 15 15 16 17 17 12 15 19 20 20 19 20 21 21 22 22 21 20 19 19 21 21 20 21 21 23 22 20 17 16 18 19 20 17 18 19 19 19 19 19 20
14 14 15 15 15 16 16 17 11 12 16 17 18 19 18 19 20 20 20 18 17 17 18 19 20 21 22 21 21 20 17 17 18 17 18 19 19 20 19 20 21 20 20 19 20
15 15 15 16 15 16 16 12 12 16 15 16 17 16 16 18 19 19 16 13 15 17 14 15 18 21 21 21 21 18 17 16 18 16 18 18 20 22 20 21 21 21 21 21 20
15 16 16 15 16 16 16 10 12 13 15 15 15 13 13 15 16 16 14 12 15 14 15 15 17 17 20 20 19 20 19 18 14 15 17 17 20 22 20 19 19 21 20 20 20
16 16 15 16 16 16 11 12 13 14 14 14 13 13 12 13 14 14 12 14 14 14 14 15 16 16 17 18 18 18 19 18 14 16 18 18 18 17 17 18 18 19 20 20 20
16 16 16 16 16 16 9 13 13 14 15 13 12 12 12 11 12 12 11 14 14 14 13 12 13 15 16 15 15 13 12 11 13 14 15 16 16 20 17 17 17 18 20 20 20
15 10 15 16 13 9 8 11 14 12 14 12 12 11 11 10 10 12 11 12 14 13 12 12 9 12 14 13 15 14 12 10 11 15 12 14 15 16 16 17 18 18 20 21 21
15 14 15 17 10 7 11 12 12 11 10 11 10 10 10 9 10 10 12 13 13 12 11 12 8 10 13 12 11 12 12 12 9 8 11 14 15 17 16 17 18 17 17 18 19
14 9 14 13 12 9 10 9 10 12 11 10 9 9 9 7 7 9 10 11 12 12 13 12 6 8 9 11 11 12 12 12 10 9 10 13 13 14 14 15 17 16 16 16 17
13 10 10 7 9 8 9 10 10 9 10 10 9 8 8 6 7 7 8 8 11 10 10 8 7 9 10 10 12 12 12 12 12 13 12 12 13 14 13 13 15 15 14 15 15
12 11 11 10 10 8 6 9 9 9 9 9 8 9 7 7 8 7 8 7 8 8 7 6 7 8 8 9 10 11 12 13 13 13 13 13 14 13 14 14 13 12 13 12 13
12 11 12 8 7 7 8 10 10 9 10 10 10 8 8 9 9 9 9 9 9 9 7 6 6 6 7 7 9 9 10 11 12 13 13 12 11 9 9 10 9 10 10 10 11
Height
1519 1516 1513 1510 1508 1505 1502 1499 1496 1494 1492 1491 1490 1489 1487 1486 1485 1485 1484 1487 1489 1492 1496 1499 1502 1505 1509 1511 1512 1513 1516 1519 1508 1503 1505 1506 1507 1509 1510 1511 1512 1513 1515 1520 1527
1517 1514 1511 1509 1506 1503 1500 1497 1495 1493 1490 1489 1487 1487 1485 1484 1482 1479 1482 1482 1486 1490 1493 1497 1500 1505 1509 1510 1512 1513 1516 1511 1500 1498 1501 1506 1506 1508 1510 1512 1513 1515 1520 1525 1529
1515 1512 1509 1506 1504 1501 1498 1496 1493 1491 1489 1487 1485 1484 1483 1482 1481 1477 1476 1479 1484 1489 1494 1498 1502 1505 1507 1509 1509 1508 1508 1501 1499 1498 1499 1503 1506 1507 1508 1512 1512 1515 1519 1525 1529
1513 1510 1506 1504 1501 1498 1496 1493 1491 1488 1487 1485 1483 1482 1482 1482 1483 1478 1477 1479 1484 1488 1493 1496 1501 1504 1507 1508 1506 1508 1501 1503 1499 1498 1499 1503 1504 1506 1508 1509 1510 1513 1517 1524 1529
1510 1507 1504 1501 1498 1495 1493 1491 1488 1486 1484 1483 1481 1480 1481 1481 1477 1478 1479 1481 1484 1487 1490 1494 1498 1502 1505 1504 1505 1504 1502 1499 1497 1495 1495 1501 1503 1501 1506 1508 1510 1517 1523 1527 1531
1508 1504 1500 1497 1494 1491 1489 1488 1485 1483 1481 1480 1479 1479 1480 1481 1476 1477 1479 1481 1483 1486 1489 1493 1495 1500 1502 1502 1503 1498 1499 1497 1495 1492 1493 1500 1502 1500 1505 1508 1511 1518 1523 1528 1532
1505 1501 1497 1494 1490 1487 1486 1484 1482 1481 1479 1478 1477 1478 1478 1475 1475 1477 1479 1480 1482 1484 1487 1492 1496 1501 1501 1500 1499 1497 1500 1493 1492 1492 1496 1499 1503 1502 1500 1508 1513 1517 1523 1529 1532
1501 1497 1494 1490 1487 1484 1482 1481 1479 1478 1478 1477 1476 1477 1474 1473 1474 1476 1478 1480 1482 1485 1489 1493 1497 1499 1500 1499 1497 1497 1500 1504 1494 1497 1498 1500 1506 1501 1500 1505 1511 1516 1521 1526 1530
1498 1494 1490 1487 1484 1480 1479 1477 1476 1475 1476 1476 1477 1476 1471 1471 1472 1473 1476 1479 1481 1485 1489 1493 1497 1500 1500 1502 1510 1505 1512 1505 1500 1495 1496 1500 1501 1500 1500 1503 1510 1514 1517 1522 1528
1495 1491 1487 1484 1481 1477 1476 1475 1473 1473 1475 1476 1476 1478 1469 1469 1470 1471 1475 1478 1481 1485 1491 1493 1496 1500 1503 1509 1526 1512 1507 1505 1504 1499 1499 1504 1503 1499 1500 1504 1502 1510 1514 1519 1522
1492 1488 1484 1481 1477 1475 1475 1474 1476 1476 1474 1471 1471 1468 1466 1468 1468 1471 1473 1476 1479 1484 1490 1490 1497 1505 1501 1501 1499 1500 1505 1507 1500 1496 1497 1497 1495 1496 1499 1503 1505 1507 1512 1514 1520
1488 1485 1481 1478 1475 1474 1474 1475 1476 1478 1472 1467 1467 1466 1465 1467 1469 1469 1472 1476 1478 1485 1485 1493 1499 1492 1490 1492 1497 1499 1504 1508 1498 1490 1495 1493 1496 1496 1497 1499 1504 1507 1511 1513 1519
1486 1482 1479 1476 1474 1475 1474 1475 1474 1472 1472 1463 1462 1463 1464 1466 1466 1467 1470 1472 1475 1482 1485 1494 1488 1486 1489 1492 1496 1498 1503 1506 1507 1497 1493 1498 1502 1501 1501 1501 1503 1506 1509 1513 1516
1484 1480 1477 1475 1476 1475 1474 1473 1473 1472 1482 1468 1460 1459 1463 1464 1466 1465 1469 1472 1474 1480 1482 1486 1481 1485 1489 1493 1495 1507 1491 1496 1498 1505 1517 1495 1520 1504 1501 1503 1501 1501 1503 1506 1509
1481 1477 1476 1474 1474 1475 1475 1472 1472 1473 1490 1460 1459 1458 1460 1464 1466 1467 1468 1470 1475 1478 1483 1488 1482 1486 1490 1489 1489 1494 1486 1493 1496 1502 1504 1502 1515 1511 1503 1505 1493 1492 1495 1501 1506
1478 1475 1474 1474 1475 1475 1474 1473 1473 1487 1483 1461 1457 1458 1461 1464 1464 1466 1468 1471 1474 1476 1480 1481 1478 1480 1482 1479 1481 1479 1486 1493 1503 1512 1528 1507 1511 1516 1502 1485 1481 1490 1491 1496 1503
1478 1475 1475 1476 1477 1475 1474 1473 1488 1494 1467 1470 1463 1461 1463 1468 1467 1468 1471 1476 1484 1493 1491 1482 1479 1475 1475 1480 1477 1483 1500 1522 1523 1530 1530 1502 1511 1499 1481 1474 1471 1473 1480 1487 1495
1480 1479 1478 1478 1477 1475 1473 1476 1495 1480 1477 1467 1464 1467 1474 1470 1470 1473 1480 1492 1484 1484 1497 1500 1498 1478 1477 1478 1482 1486 1493 1520 1527 1535 1520 1505 1509 1495 1480 1468 1472 1474 1476 1483 1489
1483 1482 1480 1479 1478 1476 1474 1493 1498 1488 1477 1474 1470 1483 1484 1477 1477 1479 1491 1498 1491 1489 1496 1501 1494 1482 1477 1477 1479 1482 1492 1486 1516 1518 1517 1514 1495 1486 1481 1474 1469 1467 1472 1476 1483
1484 1483 1482 1480 1479 1477 1479 1491 1491 1486 1479 1476 1488 1489 1497 1490 1487 1488 1498 1498 1496 1490 1488 1496 1499 1489 1483 1479 1479 1482 1484 1497 1509 1527 1524 1516 1512 1515 1496 1488 1476 1467 1465 1467 1476
1485 1484 1483 1482 1481 1480 1495 1492 1491 1488 1482 1486 1492 1496 1497 1498 1497 1499 1508 1499 1497 1493 1492 1498 1501 1496 1488 1501 1502 1501 1511 1510 1506 1512 1527 1531 1526 1501 1503 1495 1485 1473 1464 1467 1473
1487 1490 1487 1481 1487 1492 1501 1496 1495 1493 1490 1493 1494 1497 1500 1502 1505 1504 1511 1507 1500 1497 1504 1502 1512 1513 1511 1505 1502 1504 1516 1520 1524 1516 1521 1518 1529 1504 1499 1494 1485 1473 1463 1465 1472
1492 1492 1490 1486 1501 1504 1501 1501 1503 1501 1500 1499 1504 1502 1502 1507 1511 1510 1509 1509 1504 1501 1506 1503 1518 1525 1518 1514 1510 1516 1518 1518 1524 1529 1532 1528 1528 1504 1499 1492 1487 1482 1474 1475 1479
1495 1500 1498 1495 1499 1502 1504 1508 1509 1507 1507 1507 1510 1506 1508 1513 1513 1517 1516 1512 1510 1506 1503 1502 1525 1529 1540 1532 1528 1526 1523 1521 1528 1538 1538 1529 1525 1512 1504 1498 1493 1490 1486 1486 1489
1500 1507 1507 1512 1508 1507 1506 1512 1512 1513 1511 1510 1512 1514 1515 1522 1520 1523 1521 1517 1512 1512 1509 1512 1529 1527 1528 1527 1525 1524 1525 1524 1527 1527 1531 1526 1526 1515 1509 1504 1499 1496 1494 1491 1492
1505 1508 1510 1511 1510 1510 1512 1517 1515 1514 1514 1517 1517 1517 1516 1521 1523 1523 1522 1522 1523 1518 1517 1519 1529 1526 1529 1526 1524 1523 1522 1520 1521 1522 1521 1518 1520 1513 1510 1507 1502 1501 1499 1498 1497
1509 1510 1511 1515 1515 1516 1518 1517 1516 1516 1517 1516 1516 1518 1518 1518 1518 1518 1519 1519 1521 1522 1524 1525 1531 1536 1535 1531 1524 1528 1526 1524 1524 1520 1520 1524 1522 1518 1514 1513 1512 1508 1504 1503 1502
Wind_Speed
18 19 19 19 17 17 17 17 15 14 13 11 11 10 11 10 11 13 14 9 16 14 18 18 15 15 18 14 8 4 1 3 3 3 2 9 5 8 2 10 7 2 17 38 40
19 19 18 18 18 18 17 17 16 14 14 13 12 11 10 11 14 17 8 12 19 16 23 20 20 20 9 8 7 4 1 6 5 0 5 13 6 13 5 12 9 20 30 41 38
21 21 20 19 18 18 17 17 17 15 14 13 13 11 11 10 11 3 3 18 20 18 18 15 19 16 4 4 6 5 4 3 2 4 10 11 7 9 13 9 9 29 39 41 38
21 22 22 21 20 19 17 17 17 15 15 13 12 11 9 6 1 3 7 15 22 20 19 17 21 11 5 5 12 4 9 12 6 5 7 8 7 7 12 8 15 36 46 43 40
21 22 22 22 22 20 18 16 17 16 15 12 11 9 7 5 7 4 6 14 21 21 21 21 22 11 6 6 9 8 6 10 15 21 19 11 8 6 7 9 17 36 39 37 36
22 22 22 21 21 21 19 16 16 15 15 10 10 9 5 3 6 6 4 7 18 22 22 24 18 21 6 3 3 4 8 15 15 14 12 3 2 6 8 13 24 34 34 34 36
23 23 23 22 21 19 18 16 16 14 12 9 5 5 7 6 6 8 2 4 5 15 23 26 10 16 1 3 9 18 9 10 7 14 3 6 4 5 16 16 32 36 31 28 34
24 25 23 22 20 20 17 16 14 12 10 6 2 3 7 5 9 11 8 6 4 5 14 22 23 8 2 7 6 4 4 1 3 12 4 6 4 8 23 26 27 31 31 32 33
25 24 23 22 20 19 16 15 11 8 6 4 5 4 5 10 12 11 11 9 8 8 8 6 19 6 3 1 4 6 1 1 1 19 4 7 4 12 23 27 24 30 32 33 28
24 23 23 22 19 17 13 10 5 3 4 4 6 5 6 6 9 8 12 14 9 13 7 9 8 4 2 4 4 2 2 0 2 4 3 10 8 11 23 24 30 30 32 33 35
23 21 22 21 17 13 6 2 2 2 5 8 2 7 3 4 8 9 12 15 11 12 5 8 4 6 7 8 7 3 3 4 2 6 6 12 8 17 22 20 23 28 31 33 35
22 21 21 20 13 5 4 4 10 3 8 14 16 20 19 11 4 9 14 9 9 4 4 5 4 8 5 4 5 5 4 4 7 5 4 4 6 8 14 15 19 21 24 28 29
21 20 20 16 3 3 5 13 13 8 2 9 13 13 11 6 4 3 12 9 5 5 5 5 4 6 5 3 3 3 6 3 6 5 2 5 2 5 3 4 14 20 25 25 31
21 19 18 8 3 4 7 10 8 2 4 6 4 7 9 5 1 7 7 4 3 9 6 4 7 6 5 5 6 6 5 5 5 1 3 3 3 7 6 6 9 20 28 33 37
19 17 14 3 2 7 10 4 5 1 1 1 3 9 10 8 6 5 8 5 6 4 6 5 2 5 6 8 6 10 6 7 4 4 2 2 3 5 8 11 20 22 31 32 36
16 13 8 4 6 8 6 5 1 5 1 2 2 3 6 3 2 5 4 5 4 4 2 5 3 5 7 6 10 3 1 4 4 4 1 6 5 3 8 17 14 18 28 32 30
9 9 6 6 7 8 8 3 4 2 7 7 2 3 4 2 2 2 3 3 3 4 1 2 3 2 2 2 3 5 6 2 2 2 5 2 4 8 13 13 19 24 33 34 37
8 10 10 8 6 8 10 5 8 6 4 5 3 7 6 3 1 5 5 7 7 2 3 3 1 2 4 1 5 5 9 6 5 5 4 1 5 2 8 18 19 25 34 33 33
7 8 9 7 7 12 4 6 2 5 6 7 3 8 8 7 5 4 7 8 6 5 4 2 3 5 1 2 2 3 3 5 8 2 3 2 5 3 13 12 14 23 24 30 34
5 4 14 7 9 12 7 5 3 10 7 6 5 5 7 8 5 5 7 6 7 10 3 1 2 2 4 6 8 5 3 2 3 6 4 2 4 3 13 15 15 7 25 32 31
8 3 12 5 8 9 4 3 4 16 12 7 4 5 3 4 5 4 8 3 12 6 11 3 3 6 2 6 5 7 6 4 3 3 6 4 1 5 6 8 10 11 20 26 26
13 4 15 3 8 3 3 5 7 15 17 8 5 6 4 7 7 4 6 7 19 6 4 3 4 3 4 6 11 16 4 4 4 5 3 3 2 7 7 10 17 19 7 22 23
7 11 25 6 4 3 4 5 13 11 8 6 8 7 6 5 5 6 5 12 21 7 3 4 4 3 4 6 8 7 7 5 2 2 2 2 3 7 11 14 23 24 30 18 11
4 4 10 23 7 5 3 6 4 15 12 9 6 6 6 8 8 4 4 6 11 16 16 5 4 5 4 3 3 3 5 5 5 4 5 2 6 8 11 9 19 24 30 28 26
6 3 4 3 8 9 6 3 5 5 6 15 6 6 2 5 4 4 5 6 7 16 9 5 4 2 3 2 2 1 4 5 4 2 1 3 4 7 8 8 16 22 25 32 29
5 4 7 5 5 9 6 3 4 3 4 3 4 3 6 4 3 1 3 3 1 8 5 6 1 3 5 5 4 3 4 5 7 5 6 6 1 6 12 17 22 21 23 26 26
10 10 3 8 4 4 3 0 1 3 7 5 4 3 3 1 4 8 6 5 3 2 3 3 3 3 4 6 7 5 6 5 2 1 3 4 4 12 10 18 16 19 21 23 25
Wind_Direction
339 338 337 337 337 336 336 335 332 323 320 313 307 308 308 306 291 280 258 229 199 185 175 174 169 163 172 192 196 214 295 289 278 4 123 165 151 176 196 147 146 90 159 153 152
337 335 333 332 331 331 331 332 330 324 318 314 303 301 304 304 299 289 257 209 187 177 175 174 168 161 165 183 209 230 210 223 221 105 151 169 207 168 151 164 132 109 145 150 157
337 337 335 331 328 325 326 328 327 321 319 313 304 297 299 308 316 340 266 180 178 168 172 170 166 164 165 164 208 197 226 243 359 115 126 149 186 186 153 183 174 148 152 159 166
333 331 330 331 328 322 321 322 323 318 321 312 304 294 293 299 204 66 92 168 170 154 169 166 167 165 161 198 215 263 243 253 306 235 164 151 156 174 162 213 185 170 166 164 171
334 330 328 327 325 321 318 319 318 315 317 310 303 291 292 270 243 153 121 160 176 176 179 172 170 170 173 201 229 252 270 262 266 269 246 131 157 139 145 163 166 161 163 169 173
333 331 328 326 322 318 314 316 314 310 314 305 296 285 259 265 141 158 141 173 192 186 183 184 186 180 216 236 216 240 256 266 268 227 216 100 161 159 141 165 160 162 167 174 181
333 331 328 325 321 315 310 312 310 304 307 301 299 262 238 199 168 191 185 57 181 204 191 191 180 193 185 268 298 265 279 284 175 167 162 161 173 200 153 159 165 172 173 170 179
333 330 329 327 323 314 309 309 302 295 292 284 216 242 253 178 198 201 212 206 185 200 206 198 190 215 256 312 328 293 81 354 113 170 185 146 268 124 155 153 167 178 176 174 180
333 330 329 329 325 314 314 313 303 284 265 258 221 257 252 202 214 232 223 211 196 189 177 170 200 226 286 29 5 353 199 161 204 190 135 178 251 157 167 169 169 183 182 179 179
333 331 331 332 327 315 329 330 327 225 226 245 239 293 240 185 197 201 187 219 217 188 164 173 173 141 54 97 198 206 325 29 53 152 251 204 255 163 182 178 176 181 190 188 184
332 331 331 334 327 320 1 57 52 66 247 237 255 258 293 16 190 191 194 191 174 160 154 184 125 191 206 189 199 194 198 270 256 214 235 206 215 178 189 195 181 182 189 193 195
331 330 332 337 328 339 74 41 28 352 303 275 265 263 268 286 300 186 171 163 159 179 153 68 200 211 215 161 195 204 247 278 296 292 155 326 272 177 184 184 186 186 193 195 197
333 329 333 344 22 72 64 15 7 338 241 283 236 246 242 219 216 162 190 175 143 174 155 144 217 181 189 247 243 247 221 199 225 342 20 103 54 175 209 173 192 205 203 201 199
332 328 333 353 113 18 33 7 11 345 53 277 210 224 212 198 273 208 196 154 51 191 157 198 248 201 216 223 154 260 202 237 260 137 248 155 289 210 199 232 237 205 208 208 202
333 321 332 351 11 19 353 335 348 34 27 131 163 145 166 160 134 79 138 128 148 130 97 228 210 204 206 221 153 242 209 202 220 207 85 271 96 305 148 221 230 211 208 209 208
333 326 351 98 51 5 316 278 286 38 332 52 98 110 90 54 46 114 88 94 110 105 47 229 220 162 205 224 199 233 194 84 56 112 96 244 138 261 202 220 230 220 222 215 215
8 17 59 62 14 338 317 301 52 78 327 343 37 102 100 126 110 85 128 61 110 91 248 297 247 246 195 247 293 108 83 308 19 65 193 222 83 242 231 235 216 205 216 208 207
48 55 72 50 18 356 347 60 59 323 309 321 359 61 49 1 186 42 61 19 25 18 113 135 301 140 341 167 201 183 157 161 178 171 184 227 210 194 324 260 242 237 223 210 206
55 55 51 24 5 350 19 60 6 314 309 331 39 51 1 3 87 88 60 14 31 20 117 123 279 327 57 304 15 185 180 193 104 359 71 243 300 311 357 0 334 222 219 219 213
358 16 21 360 345 354 63 106 56 359 330 43 85 45 33 348 43 63 22 342 346 17 133 32 6 1 296 30 17 45 34 58 8 132 170 295 80 308 345 343 344 290 218 221 217
26 53 10 25 7 44 79 39 55 3 42 45 37 60 62 3 35 51 358 348 355 332 61 11 64 297 27 32 340 16 11 356 128 100 149 143 65 15 311 313 330 328 253 225 217
43 43 25 122 57 47 31 340 37 357 29 42 59 64 59 23 31 73 63 14 352 350 37 330 130 51 68 330 102 86 74 70 93 333 16 117 305 334 304 320 352 348 304 225 220
55 31 35 60 95 22 1 30 53 22 8 37 22 28 23 36 76 44 52 349 16 41 33 318 19 37 27 343 8 44 2 28 117 65 20 95 221 345 335 3 20 34 51 66 135
46 28 34 54 75 104 89 28 36 32 45 61 21 55 34 31 15 62 18 349 20 19 30 85 69 105 157 190 234 8 21 36 78 51 316 106 322 334 332 10 16 27 55 68 66
54 40 25 358 13 67 65 52 50 22 41 29 25 47 51 41 39 54 7 337 6 11 24 73 85 71 146 250 10 285 70 61 85 199 262 281 344 310 325 331 13 41 38 61 60
76 59 73 53 31 51 26 355 54 12 54 15 88 60 51 91 139 281 36 25 27 344 35 357 106 55 351 10 32 266 222 198 197 201 251 281 255 309 11 22 34 35 32 28 30
67 62 90 8 33 62 322 162 33 125 53 101 108 102 42 250 284 283 260 246 253 349 13 58 101 61 308 340 340 1 48 61 69 321 262 259 10 4 11 4 17 19 20 13 12